Flag for Jordan Weather past 2 weeks in Amman, Jordan

Now
81 °F

Haze.


Feels Like: 80 °F
Forecast: 66 / 82 °F
Wind: 5 mph from West

Location: Amman Airport

Current Time: Sep 17, 2014 at 11:30:16 PM

Latest Report: Sep 17, 2014 at 11:00 PM


Visibility: 3 mi

Pressure: 29.92 "Hg

Humidity: 30%

Dew point: 46 °F

Location of AmmanLocation

Historic Weather in Amman — Graph

°F

Amman temperature yesterday

Maximum temperature yesterday: 82 °F (at 2:00 PM)
Minimum temperature yesterday: 66 °F (at 3:00 AM)
Average temperature yesterday: 73 °F

Past Weeks' High & Low Weather Summary

 TemperatureHumidityPressure
High90 °F (Sep 17, 2:00 PM)88% (Sep 11, 6:00 AM)30.04 "Hg (Sep 11, 6:00 AM)
Low64 °F (Sep 3, 5:00 AM)20% (Sep 17, 3:00 PM)29.80 "Hg (Sep 5, 5:00 PM)
Average74 °F53%29.95 "Hg
* Reported Sep 2 10:00 PM — Sep 17 10:00 PM, Amman, Weather by CustomWeather, © 2014

Note: Actual official high and low records may vary slightly from our data, if they occured in-between our weather recording intervals... More about our weather records

Advertising

Amman weather history for previous 24 hours

 ConditionsComfort  
Time TempWeatherWind HumidityBarometerVisibility
10:00 PM
Sep 17
82 °FHaze.5 mph26%29.92 "Hg3 mi
9:00 PM82 °FHaze.No wind26%29.89 "Hg3 mi
8:00 PM82 °FHaze.No wind26%29.89 "Hg3 mi
7:00 PM86 °FHaze.6 mph22%29.89 "Hg3 mi
6:00 PM88 °FHaze.9 mph21%29.89 "Hg3 mi
5:00 PM90 °FClear.9 mph21%29.89 "Hg4 mi
4:00 PM90 °FClear.9 mph20%29.89 "Hg4 mi
3:00 PM90 °FClear.10 mph20%29.89 "Hg4 mi
2:00 PM90 °FClear.7 mph24%29.92 "Hg4 mi
1:00 PM86 °FClear.5 mph29%29.92 "Hg4 mi
12:00 PM84 °FClear.7 mph29%29.95 "Hg4 mi
11:00 AM82 °FHaze.6 mph30%29.95 "Hg3 mi
10:00 AM82 °FHaze.9 mph26%29.95 "Hg3 mi
9:00 AM75 °FHaze.7 mph29%29.95 "Hg3 mi
8:00 AM72 °FClear.7 mph36%29.92 "Hg2 mi
7:00 AM68 °FHaze.3 mph38%29.92 "Hg3 mi
6:00 AM68 °FHaze.3 mph38%29.92 "Hg3 mi
5:00 AM68 °FHaze.No wind38%29.92 "Hg3 mi
4:00 AM70 °FHaze.6 mph33%29.92 "Hg3 mi
3:00 AM70 °FHaze.6 mph43%29.95 "Hg3 mi
2:00 AM70 °FHaze.7 mph46%29.98 "Hg3 mi
1:00 AM70 °FHaze.No wind46%29.98 "Hg3 mi
12:00 AM70 °FHaze.No wind53%29.98 "Hg3 mi
11:00 PM
Sep 16
70 °FHaze.12 mph60%29.98 "Hg3 mi
Weather by CustomWeather, © 2014

See weather overviewHow to use our weather pages